• In Belarus
  • List of Countries
  • For 7 days
  • Water Temperature
  • Weather Map
  • Weather Widgets
  • user-avatar
    Login

    Hourly Weather Szolnok

    Today, 22 September, Sunday

    Time Temperature Precipitation Wind Pressure Humidity
    00:00 +13°C° 0 mm 1 mps 760 mmHg 46%
    01:00 +12°C° 0 mm 1 mps 760 mmHg 46%
    02:00 +12°C° 0 mm 1 mps 759 mmHg 47%
    03:00 +12°C° 0 mm 1 mps 759 mmHg 48%
    04:00 +10°C° 0 mm 2 mps 759 mmHg 48%
    05:00 +12°C° 0 mm 1 mps 759 mmHg 47%
    06:00 +13°C° 0 mm 1 mps 759 mmHg 46%
    07:00 +13°C° 0 mm 1 mps 759 mmHg 45%
    08:00 +15°C° 0 mm 2 mps 759 mmHg 40%
    09:00 +18°C° 0 mm 2 mps 758 mmHg 35%
    10:00 +20°C° 0 mm 3 mps 758 mmHg 30%
    11:00 +21°C° 0 mm 3 mps 758 mmHg 28%
    12:00 +22°C° 0 mm 3 mps 757 mmHg 25%
    13:00 +24°C° 0 mm 3 mps 756 mmHg 22%
    14:00 +24°C° 0 mm 3 mps 756 mmHg 22%
    15:00 +25°C° 0 mm 2 mps 755 mmHg 22%
    16:00 +25°C° 0 mm 2 mps 754 mmHg 22%
    17:00 +23°C° 0 mm 2 mps 754 mmHg 24%
    18:00 +20°C° 0 mm 2 mps 754 mmHg 27%
    19:00 +18°C° 0 mm 2 mps 754 mmHg 30%
    20:00 +18°C° 0 mm 2 mps 754 mmHg 31%
    21:00 +17°C° 0 mm 2 mps 754 mmHg 32%
    22:00 +17°C° 0 mm 2 mps 754 mmHg 32%
    23:00 +17°C° 0 mm 2 mps 754 mmHg 33%

    Tomorrow, 23 September, Monday

    Time Temperature Precipitation Wind Pressure Humidity
    00:00 +17°C° 0 mm 2 mps 754 mmHg 33%
    01:00 +17°C° 0 mm 2 mps 754 mmHg 33%
    02:00 +17°C° 0 mm 2 mps 754 mmHg 35%
    03:00 +17°C° 0 mm 2 mps 753 mmHg 37%
    04:00 +17°C° 0 mm 3 mps 753 mmHg 40%
    05:00 +16°C° 0 mm 3 mps 753 mmHg 43%
    06:00 +16°C° 0 mm 3 mps 753 mmHg 47%
    07:00 +16°C° 0 mm 3 mps 753 mmHg 51%
    08:00 +16°C° 0.1 mm 3 mps 753 mmHg 57%
    09:00 +14°C° 0.1 mm 4 mps 753 mmHg 64%
    10:00 +14°C° 0.1 mm 4 mps 753 mmHg 71%
    11:00 +15°C° 0.2 mm 4 mps 753 mmHg 72%
    12:00 +15°C° 0.2 mm 4 mps 753 mmHg 72%
    13:00 +17°C° 0.2 mm 4 mps 753 mmHg 73%
    14:00 +18°C° 0 mm 4 mps 753 mmHg 71%
    15:00 +18°C° 0 mm 4 mps 753 mmHg 69%
    16:00 +19°C° 0 mm 4 mps 753 mmHg 67%
    17:00 +17°C° 0 mm 3 mps 753 mmHg 72%
    18:00 +16°C° 0 mm 3 mps 753 mmHg 77%
    19:00 +15°C° 0 mm 2 mps 753 mmHg 82%
    20:00 +15°C° 0 mm 2 mps 753 mmHg 85%
    21:00 +14°C° 0 mm 1 mps 753 mmHg 87%
    22:00 +13°C° 0 mm 0 mps 753 mmHg 89%
    23:00 +14°C° 0 mm 1 mps 753 mmHg 90%

    Day after tomorrow, 24 September, Tuesday

    Time Temperature Precipitation Wind Pressure Humidity
    00:00 +14°C° 0 mm 1 mps 753 mmHg 91%
    01:00 +13°C° 0 mm 1 mps 753 mmHg 92%
    02:00 +13°C° 0 mm 1 mps 753 mmHg 92%
    03:00 +13°C° 0 mm 1 mps 752 mmHg 93%
    04:00 +13°C° 0 mm 1 mps 752 mmHg 93%
    05:00 +14°C° 0 mm 1 mps 752 mmHg 89%
    06:00 +14°C° 0 mm 1 mps 752 mmHg 85%
    07:00 +15°C° 0 mm 1 mps 752 mmHg 82%
    08:00 +17°C° 0 mm 2 mps 752 mmHg 74%
    09:00 +18°C° 0 mm 2 mps 752 mmHg 66%
    10:00 +20°C° 0 mm 2 mps 752 mmHg 59%
    11:00 +21°C° 0 mm 2 mps 751 mmHg 55%
    12:00 +21°C° 0 mm 2 mps 751 mmHg 50%
    13:00 +23°C° 0 mm 1 mps 751 mmHg 46%
    14:00 +23°C° 0 mm 2 mps 750 mmHg 48%
    15:00 +21°C° 0 mm 2 mps 750 mmHg 51%
    16:00 +21°C° 0 mm 2 mps 750 mmHg 53%
    17:00 +20°C° 0 mm 2 mps 750 mmHg 58%
    18:00 +19°C° 0 mm 3 mps 750 mmHg 63%
    19:00 +18°C° 0 mm 3 mps 750 mmHg 69%
    20:00 +17°C° 0.2 mm 3 mps 750 mmHg 73%
    21:00 +17°C° 0.2 mm 3 mps 750 mmHg 77%
    22:00 +16°C° 0.2 mm 2 mps 751 mmHg 81%
    23:00 +16°C° 0.1 mm 2 mps 750 mmHg 82%

    25 September, Wednesday

    Time Temperature Precipitation Wind Pressure Humidity
    00:00 +16°C° 0.1 mm 2 mps 750 mmHg 82%
    01:00 +16°C° 0.1 mm 2 mps 750 mmHg 83%
    02:00 +16°C° 0 mm 2 mps 750 mmHg 84%
    03:00 +15°C° 0 mm 2 mps 750 mmHg 85%
    04:00 +15°C° 0 mm 2 mps 750 mmHg 85%
    05:00 +15°C° 0 mm 2 mps 750 mmHg 85%
    06:00 +15°C° 0 mm 2 mps 750 mmHg 85%
    07:00 +14°C° 0 mm 3 mps 750 mmHg 85%
    08:00 +17°C° 0 mm 3 mps 750 mmHg 78%
    09:00 +18°C° 0 mm 3 mps 750 mmHg 71%
    10:00 +20°C° 0 mm 3 mps 751 mmHg 63%
    11:00 +21°C° 0 mm 3 mps 750 mmHg 59%
    12:00 +22°C° 0 mm 3 mps 750 mmHg 54%
    13:00 +24°C° 0 mm 3 mps 750 mmHg 50%
    14:00 +22°C° 0.2 mm 3 mps 750 mmHg 52%
    15:00 +22°C° 0.2 mm 3 mps 750 mmHg 54%
    16:00 +21°C° 0.2 mm 3 mps 749 mmHg 57%
    17:00 +20°C° 0 mm 3 mps 750 mmHg 59%
    18:00 +20°C° 0 mm 3 mps 750 mmHg 61%
    19:00 +19°C° 0 mm 3 mps 750 mmHg 63%
    20:00 +18°C° 0 mm 3 mps 751 mmHg 64%
    21:00 +18°C° 0 mm 3 mps 751 mmHg 66%
    22:00 +17°C° 0 mm 3 mps 751 mmHg 67%
    23:00 +17°C° 0 mm 3 mps 751 mmHg 68%

    26 September, Thursday

    Time Temperature Precipitation Wind Pressure Humidity
    00:00 +16°C° 0 mm 3 mps 751 mmHg 68%
    01:00 +16°C° 0 mm 3 mps 751 mmHg 69%
    02:00 +16°C° 0 mm 3 mps 752 mmHg 70%
    03:00 +16°C° 0 mm 3 mps 752 mmHg 71%
    04:00 +14°C° 0 mm 3 mps 752 mmHg 72%
    05:00 +15°C° 0 mm 4 mps 752 mmHg 70%
    06:00 +15°C° 0 mm 4 mps 753 mmHg 68%
    07:00 +15°C° 0 mm 4 mps 753 mmHg 66%
    08:00 +18°C° 0 mm 4 mps 753 mmHg 58%
    09:00 +19°C° 0 mm 5 mps 754 mmHg 51%
    10:00 +21°C° 0 mm 5 mps 754 mmHg 43%
    11:00 +22°C° 0 mm 5 mps 754 mmHg 41%
    12:00 +22°C° 0 mm 5 mps 753 mmHg 38%
    13:00 +23°C° 0 mm 5 mps 753 mmHg 35%
    14:00 +23°C° 0 mm 5 mps 753 mmHg 37%
    15:00 +23°C° 0 mm 5 mps 753 mmHg 38%
    16:00 +23°C° 0 mm 5 mps 753 mmHg 40%
    17:00 +21°C° 0 mm 4 mps 753 mmHg 45%
    18:00 +19°C° 0 mm 3 mps 754 mmHg 50%
    19:00 +18°C° 0 mm 3 mps 754 mmHg 56%
    20:00 +17°C° 0 mm 2 mps 754 mmHg 58%
    21:00 +17°C° 0 mm 2 mps 755 mmHg 60%
    22:00 +16°C° 0 mm 2 mps 755 mmHg 63%
    23:00 +16°C° 0 mm 2 mps 755 mmHg 65%

    27 September, Friday

    Time Temperature Precipitation Wind Pressure Humidity
    00:00 +15°C° 0 mm 2 mps 755 mmHg 67%
    01:00 +15°C° 0 mm 2 mps 755 mmHg 70%
    02:00 +15°C° 0 mm 2 mps 755 mmHg 73%
    03:00 +14°C° 0 mm 2 mps 755 mmHg 77%
    04:00 +14°C° 0 mm 2 mps 755 mmHg 80%
    05:00 +15°C° 0 mm 2 mps 755 mmHg 79%
    06:00 +15°C° 0 mm 2 mps 755 mmHg 77%
    07:00 +16°C° 0 mm 2 mps 756 mmHg 76%
    08:00 +18°C° 0 mm 2 mps 756 mmHg 66%
    09:00 +20°C° 0 mm 3 mps 756 mmHg 56%
    10:00 +22°C° 0 mm 4 mps 756 mmHg 47%
    11:00 +23°C° 0 mm 4 mps 755 mmHg 43%
    12:00 +25°C° 0 mm 4 mps 755 mmHg 39%
    13:00 +26°C° 0 mm 4 mps 754 mmHg 35%
    14:00 +26°C° 0 mm 3 mps 754 mmHg 35%
    15:00 +26°C° 0 mm 3 mps 754 mmHg 35%
    16:00 +26°C° 0 mm 3 mps 753 mmHg 35%
    17:00 +24°C° 0 mm 3 mps 753 mmHg 39%
    18:00 +23°C° 0 mm 2 mps 753 mmHg 42%
    19:00 +20°C° 0 mm 2 mps 753 mmHg 46%
    20:00 +19°C° 0 mm 2 mps 753 mmHg 48%
    21:00 +19°C° 0 mm 2 mps 753 mmHg 50%
    22:00 +18°C° 0 mm 3 mps 753 mmHg 52%
    23:00 +18°C° 0 mm 3 mps 753 mmHg 54%
    Show more